User: anonymous   Login
Location: Unspecified
(0.0000°N, 0.0000°E)
Time: 06:58:13
(UTC+00:00)
Language:

LilacSat-2 - Orbit

View from above orbital plane
View from above orbital plane
View from above satellite
View from above satellite

Ground track
Ground track

The orbit data is extracted from the following two-line orbital elements,

1 40908U 15049K   17202.93964785 +.00000427 +00000-0 +27650-4 0  9990
2 40908 097.4621 207.2330 0017880 090.9707 269.3573 15.13145881101425
Epoch (UTC): 21 July 2017 22:33:05
Eccentricity: 0.0017880
inclination: 97.4621°
perigee height: 514 km
apogee height: 539 km
right ascension of ascending node: 207.2330°
argument of perigee: 90.9707°
revolutions per day: 15.13145881
mean anomaly at epoch: 269.3573°
orbit number at epoch: 10142

The dashed part of the orbit path shows where the satellite is in the earth's shadow,  

DLR